DAL553 KLAS-KPHX

Flight info

Callsign DAL553
Flight time N/A
Altitude 29000
Route RASLR3 ZAYNE WOTRO BRUSR1
Aircraft A21N/M-SADE2E3GHIJ4J7M3P2RWXYZ/LB1D1

Departure

Time N/A
Airport Harry Reid International Airport (KLAS)

Arrival

Time 2026-05-03 20:36
Airport Phoenix Sky Harbor International Airport (KPHX)
Time Latitude Longitude Altitude Speed Heading
2026-05-03 20:15 34.78705 -112.63148 24772 ft 424 kts 131°
2026-05-03 20:15 34.77048 -112.60184 24560 ft 421 kts 131°
2026-05-03 20:15 34.75402 -112.57244 24339 ft 418 kts 131°
2026-05-03 20:15 34.73767 -112.54332 24105 ft 416 kts 131°
2026-05-03 20:16 34.72140 -112.51437 23903 ft 414 kts 131°
2026-05-03 20:16 34.70478 -112.48596 24035 ft 409 kts 137°
2026-05-03 20:16 34.68495 -112.46224 23840 ft 393 kts 148°
2026-05-03 20:16 34.66379 -112.44150 23143 ft 391 kts 149°
2026-05-03 20:17 34.64391 -112.42259 22461 ft 391 kts 149°
2026-05-03 20:17 34.62259 -112.40210 21892 ft 388 kts 148°
2026-05-03 20:17 34.60167 -112.38177 21395 ft 382 kts 148°
2026-05-03 20:17 34.58113 -112.36174 20982 ft 375 kts 148°
2026-05-03 20:18 34.56095 -112.34203 20538 ft 370 kts 147°
2026-05-03 20:18 34.54107 -112.32266 20215 ft 362 kts 147°
2026-05-03 20:18 34.52166 -112.30370 19934 ft 353 kts 147°
2026-05-03 20:18 34.50266 -112.28518 19665 ft 353 kts 147°
2026-05-03 20:19 34.48361 -112.26666 19418 ft 347 kts 147°
2026-05-03 20:19 34.46525 -112.24878 19183 ft 340 kts 147°
2026-05-03 20:19 34.44537 -112.23244 18879 ft 344 kts 159°
2026-05-03 20:19 34.42357 -112.22342 18573 ft 331 kts 172°
2026-05-03 20:20 34.40120 -112.21770 18127 ft 327 kts 173°
2026-05-03 20:20 34.37905 -112.21236 17697 ft 324 kts 173°
2026-05-03 20:20 34.35702 -112.20696 17322 ft 321 kts 173°
2026-05-03 20:20 34.33517 -112.20148 16926 ft 320 kts 172°
2026-05-03 20:21 34.31341 -112.19594 16525 ft 319 kts 172°
2026-05-03 20:21 34.29172 -112.19037 16152 ft 318 kts 172°
2026-05-03 20:21 34.27012 -112.18479 15852 ft 316 kts 172°
2026-05-03 20:21 34.24870 -112.17927 15499 ft 315 kts 172°
2026-05-03 20:22 34.22733 -112.17376 15123 ft 313 kts 171°
2026-05-03 20:22 34.20608 -112.16827 14819 ft 311 kts 171°
2026-05-03 20:22 34.18498 -112.16283 14560 ft 308 kts 171°
2026-05-03 20:22 34.16424 -112.15747 14315 ft 301 kts 170°
2026-05-03 20:23 34.14406 -112.15226 14046 ft 293 kts 170°
2026-05-03 20:23 34.12429 -112.14715 13702 ft 288 kts 170°
2026-05-03 20:23 34.10471 -112.14211 13319 ft 288 kts 170°
2026-05-03 20:23 34.08490 -112.13808 12954 ft 287 kts 179°
2026-05-03 20:24 34.06533 -112.13901 12641 ft 284 kts 186°
2026-05-03 20:24 34.04570 -112.14132 12287 ft 284 kts 186°
2026-05-03 20:24 34.02605 -112.14367 11924 ft 284 kts 186°
2026-05-03 20:24 34.00648 -112.14596 11565 ft 280 kts 186°
2026-05-03 20:25 33.98723 -112.14816 11215 ft 276 kts 186°
2026-05-03 20:25 33.96821 -112.15032 10944 ft 273 kts 185°
2026-05-03 20:25 33.94942 -112.15244 10692 ft 269 kts 186°
2026-05-03 20:25 33.93090 -112.15452 10451 ft 265 kts 185°
2026-05-03 20:26 33.91263 -112.15662 10208 ft 261 kts 186°
2026-05-03 20:26 33.89481 -112.15986 9973 ft 257 kts 189°
2026-05-03 20:26 33.87735 -112.16356 9767 ft 252 kts 189°
2026-05-03 20:26 33.86027 -112.16723 9566 ft 249 kts 189°
2026-05-03 20:27 33.84317 -112.17088 9367 ft 248 kts 189°
2026-05-03 20:27 33.82621 -112.17449 9165 ft 247 kts 189°
2026-05-03 20:27 33.80931 -112.17808 8941 ft 244 kts 189°
2026-05-03 20:27 33.79292 -112.18155 8690 ft 240 kts 189°
2026-05-03 20:28 33.77655 -112.18503 8413 ft 238 kts 189°
2026-05-03 20:28 33.76026 -112.18846 8148 ft 237 kts 189°
2026-05-03 20:28 33.74392 -112.19192 7926 ft 239 kts 189°
2026-05-03 20:28 33.72754 -112.19537 7590 ft 239 kts 189°
2026-05-03 20:29 33.71134 -112.19883 7345 ft 233 kts 189°
2026-05-03 20:29 33.69537 -112.20228 7134 ft 235 kts 189°
2026-05-03 20:29 33.67830 -112.20592 7002 ft 257 kts 189°
2026-05-03 20:29 33.66070 -112.20967 6868 ft 255 kts 189°
2026-05-03 20:30 33.64334 -112.21292 6658 ft 251 kts 183°
2026-05-03 20:30 33.62608 -112.21073 6209 ft 251 kts 166°
2026-05-03 20:30 33.60937 -112.20470 5778 ft 251 kts 163°
2026-05-03 20:30 33.59275 -112.19836 5370 ft 250 kts 163°
2026-05-03 20:31 33.57620 -112.19215 4979 ft 249 kts 163°
2026-05-03 20:31 33.55961 -112.18601 4551 ft 249 kts 163°
2026-05-03 20:31 33.54308 -112.17993 4169 ft 248 kts 163°
2026-05-03 20:31 33.52675 -112.17397 3847 ft 250 kts 163°
2026-05-03 20:32 33.51035 -112.16801 3664 ft 244 kts 163°
2026-05-03 20:32 33.49424 -112.16217 3691 ft 234 kts 163°
2026-05-03 20:32 33.47931 -112.15680 3703 ft 216 kts 164°
2026-05-03 20:32 33.46528 -112.15174 3493 ft 206 kts 164°
2026-05-03 20:33 33.45262 -112.14587 3411 ft 185 kts 151°
2026-05-03 20:33 33.44378 -112.13584 3285 ft 169 kts 126°
2026-05-03 20:33 33.44085 -112.12302 3090 ft 153 kts 99°
2026-05-03 20:33 33.44088 -112.11053 2689 ft 147 kts 96°
2026-05-03 20:34 33.44084 -112.10237 2438 ft 148 kts 96°
2026-05-03 20:34 33.44084 -112.09013 2167 ft 150 kts 95°
2026-05-03 20:34 33.44085 -112.07793 1990 ft 147 kts 96°
2026-05-03 20:34 33.44086 -112.06597 1832 ft 143 kts 95°
2026-05-03 20:35 33.44086 -112.05423 1627 ft 140 kts 95°
2026-05-03 20:35 33.44074 -112.04255 1431 ft 140 kts 90°
2026-05-03 20:35 33.44089 -112.03099 1229 ft 137 kts 93°
2026-05-03 20:35 33.44081 -112.02016 1131 ft 117 kts 90°
2026-05-03 20:36 33.44081 -112.01294 1136 ft 57 kts 92°
2026-05-03 20:36 33.44085 -112.00956 1135 ft 37 kts 92°
2026-05-03 20:36 33.44058 -112.00749 1136 ft 11 kts 130°
2026-05-03 20:36 33.44001 -112.00688 1135 ft 12 kts 132°
2026-05-03 20:37 33.43970 -112.00595 1132 ft 13 kts 96°
2026-05-03 20:37 33.43969 -112.00478 1131 ft 15 kts 88°
2026-05-03 20:37 33.43944 -112.00380 1132 ft 12 kts 167°
2026-05-03 20:37 33.43876 -112.00378 1132 ft 9 kts 184°
2026-05-03 20:38 33.43809 -112.00380 1131 ft 11 kts 179°
2026-05-03 20:38 33.43728 -112.00380 1132 ft 13 kts 180°
2026-05-03 20:38 33.43632 -112.00380 1131 ft 15 kts 180°
2026-05-03 20:38 33.43523 -112.00381 1132 ft 17 kts 180°
2026-05-03 20:39 33.43401 -112.00381 1132 ft 18 kts 179°
2026-05-03 20:39 33.43296 -112.00386 1132 ft 14 kts 209°
2026-05-03 20:39 33.43285 -112.00502 1132 ft 16 kts 275°
2026-05-03 20:39 33.43288 -112.00639 1134 ft 17 kts 270°
2026-05-03 20:40 33.43288 -112.00792 1134 ft 19 kts 270°
2026-05-03 20:40 33.43289 -112.00957 1134 ft 21 kts 271°
2026-05-03 20:40 33.43291 -112.01030 1133 ft 4 kts 282°
2026-05-03 20:40 33.43314 -112.01060 1131 ft 6 kts 338°
2026-05-03 20:41 33.43362 -112.01076 1132 ft 7 kts 346°
2026-05-03 20:41 33.43379 -112.01081 1132 ft 2 kts 346°
2026-05-03 20:41 33.43380 -112.01081 1132 ft 0 kts 346°